Location: Unspecified
(41.7943°N, 0.0000°E)
Time: 04:19:33
(UTC+00:00)

Tiros 1 despin weight - All Passes

Search period start: 04 April 2026 00:00
Search period end: 14 April 2026 00:00
Orbit: 555 x 593 km, 48.2° (Epoch: 29 March)

Date Brightness Start Highest point End Pass type
(mag) Time Alt. Az. Time Alt. Az. Time Alt. Az.
4 Apr - 00:25:08 10° WNW 00:29:12 35° N 00:33:17 10° ENE night (unlit)
4 Apr - 02:05:54 10° WNW 02:10:18 65° NNE 02:14:40 10° ESE visible
4 Apr - 03:46:46 10° WNW 03:50:41 32° SW 03:54:35 10° SSE visible
4 Apr - 19:26:51 10° S 19:29:22 15° SE 19:31:55 10° E visible
4 Apr - 21:05:02 10° SW 21:09:22 75° SSE 21:13:46 10° ENE visible
4 Apr - 22:46:03 10° W 22:50:12 41° NNW 22:54:24 10° ENE night (unlit)
5 Apr - 00:27:19 10° WNW 00:31:26 38° N 00:35:34 10° ENE night (unlit)
5 Apr - 02:07:57 10° WNW 02:12:23 86° NNE 02:16:48 10° ESE night (unlit)
5 Apr - 03:49:14 10° W 03:52:35 21° SW 03:55:54 10° S visible
5 Apr - 19:27:46 10° S 19:31:13 23° SE 19:34:41 10° E visible
5 Apr - 21:07:05 10° WSW 21:11:26 79° NNW 21:15:50 10° ENE visible
5 Apr - 22:48:20 10° WNW 22:52:25 37° N 22:56:32 10° ENE night (unlit)
6 Apr - 00:29:26 10° WNW 00:33:39 42° NNE 00:37:52 10° E night (unlit)
6 Apr - 02:10:03 10° WNW 02:14:26 69° SSW 02:18:49 10° SE night (unlit)
6 Apr - 03:52:10 10° WSW 03:54:24 14° SW 03:56:37 10° SSW visible
6 Apr - 19:29:10 10° SSW 19:33:05 35° SE 19:37:04 10° ENE visible
6 Apr - 21:09:14 10° WSW 21:13:32 60° NNW 21:17:53 10° ENE visible
6 Apr - 22:50:36 10° WNW 22:54:39 35° N 22:58:43 10° ENE visible
7 Apr - 00:31:31 10° WNW 00:35:49 51° NNE 00:40:08 10° E night (unlit)
7 Apr - 02:12:10 10° WNW 02:16:25 47° SW 02:20:38 10° SE night (unlit)
7 Apr - 19:30:50 10° SW 19:35:01 52° SE 19:39:17 10° ENE visible
7 Apr - 21:11:27 10° W 21:15:40 48° NNW 21:19:56 10° ENE visible
7 Apr - 22:52:49 10° WNW 22:56:52 35° N 23:00:57 10° ENE visible
8 Apr - 00:33:33 10° WNW 00:37:57 65° NNE 00:42:20 10° ESE night (unlit)
8 Apr - 02:14:25 10° WNW 02:18:20 31° SW 02:22:14 10° SSE night (unlit)
8 Apr - 17:54:31 10° S 17:57:01 15° SE 17:59:32 10° E daylight
8 Apr - 19:32:42 10° SW 19:37:00 76° SSE 19:41:23 10° ENE visible
8 Apr - 21:13:42 10° W 21:17:50 40° NNW 21:22:01 10° ENE visible
8 Apr - 22:54:57 10° WNW 22:59:04 38° N 23:03:12 10° ENE visible
9 Apr - 00:35:35 10° WNW 00:40:01 86° NNE 00:44:26 10° ESE night (unlit)
9 Apr - 02:16:52 10° W 02:20:11 21° SW 02:23:30 10° S night (unlit)
9 Apr - 17:55:24 10° S 17:58:49 23° SE 18:02:16 10° E daylight
9 Apr - 19:34:43 10° WSW 19:39:02 79° NNW 19:43:25 10° ENE visible
9 Apr - 21:15:58 10° WNW 21:20:01 36° N 21:24:06 10° ENE visible
9 Apr - 22:57:03 10° WNW 23:01:14 42° NNE 23:05:27 10° E visible
10 Apr - 00:37:38 10° WNW 00:42:01 68° SSW 00:46:24 10° SE night (unlit)
10 Apr - 02:19:46 10° WSW 02:21:59 14° SW 02:24:10 10° SSW night (unlit)
10 Apr - 17:56:46 10° SSW 18:00:40 35° SE 18:04:37 10° ENE daylight
10 Apr - 19:36:49 10° WSW 19:41:06 59° NNW 19:45:25 10° ENE visible
10 Apr - 21:18:11 10° WNW 21:22:12 35° N 21:26:16 10° ENE visible
10 Apr - 22:59:05 10° WNW 23:03:22 51° NNE 23:07:41 10° E visible
11 Apr - 00:39:44 10° WNW 00:43:58 46° SW 00:48:11 10° SE night (unlit)
11 Apr - 17:58:24 10° SW 18:02:34 52° SE 18:06:47 10° ENE daylight
11 Apr - 19:39:01 10° W 19:43:12 47° NNW 19:47:26 10° ENE visible
11 Apr - 21:20:22 10° WNW 21:24:23 35° N 21:28:27 10° ENE visible
11 Apr - 23:01:05 10° WNW 23:05:28 65° NNE 23:09:51 10° ESE visible
12 Apr - 00:41:57 10° WNW 00:45:50 31° SW 00:49:44 10° SSE night (unlit)
12 Apr - 16:22:03 10° S 16:24:31 15° SE 16:27:01 10° E daylight
12 Apr - 18:00:14 10° SW 18:04:30 76° SSE 18:08:51 10° ENE daylight
12 Apr - 19:41:15 10° W 19:45:20 40° NNW 19:49:28 10° ENE visible
12 Apr - 21:22:29 10° WNW 21:26:33 37° N 21:30:40 10° ENE visible
12 Apr - 23:03:05 10° WNW 23:07:29 87° NNE 23:11:54 10° ESE visible
13 Apr - 00:44:22 10° W 00:47:39 21° SW 00:50:57 10° S night (unlit)
13 Apr - 16:22:54 10° S 16:26:17 23° SE 16:29:43 10° E daylight
13 Apr - 18:02:13 10° WSW 18:06:30 78° NNW 18:10:51 10° ENE daylight
13 Apr - 19:43:28 10° WNW 19:47:28 36° N 19:51:33 10° ENE visible
13 Apr - 21:24:31 10° WNW 21:28:41 42° NNE 21:32:53 10° E visible
13 Apr - 23:05:06 10° WNW 23:09:28 68° SSW 23:13:50 10° SE visible
